Weather in Gustavia

Saint Barthélemy     17°53′51″N   62°50′56″W
temp.,
°C
wind,
m/s
gust,
m/s
humid.,
%
clouds,
%
prec.,
mm/h
press.,
hPa
HPBL,
m
24 june, thu
thu2423:00+27ene897838 0.4 1017901
02:00+27e897897 0.6 1015911
05:00+26e897722 0.6 1015905
08:00+26e89775 1.4 1016922
11:00+27e787599 0.6 1016920
14:00+27e777614 1.0 1015902
17:00+27e78728 0.5 10141020
20:00+27e887053 0.6 10151070
25 june, fri
fri2523:00+27e89675 0.0 10161012
02:00+27e88768 0.2 1014935
05:00+27e8874100 0.1 1014973
08:00+27e897783 0.1 1015932
11:00+27e897799 0.1 1015953
14:00+27e887967 0.5 1014844
17:00+27e78805 0.4 1013785
20:00+27ese788070 1.0 1015774
26 june, sat
sat2623:00+27ese7881100 1.4 1016758
02:00+26ese788116 3.1 1014754
05:00+27se77786 0.8 1014823
08:00+27se78765 1.6 1015899
11:00+27ese88767 0.6 1016919
14:00+27ese897844 2.0 1015815
17:00+27ese8977100 1.1 1015991
20:00+27ese91079100 1.5 1016925
27 june, sun
sun2723:00+27ese91078100 0.3 1016955
02:00+27ese897999 0.9 1014861
05:00+27ese897646 0.8 1015989
08:00+27ese8977100 1.6 1016958
11:00+27ese8972100 0.3 10171051
14:00+27ese8973100 0.3 10161076
17:00+27ese8976100 0.0 1016974
20:00+27e897664 0.1 1017988
28 june, mon
mon2823:00+27e91077100 0.1 1018996
02:00+27ese91077100 0.3 10171020
05:00+27e9108070 0.2 1018879
08:00+27ese9107892 0.6 1019998
11:00+27e9107936 0.0 1019921
14:00+27e910807 0.2 1018889
17:00+27e910815 0.3 1018853
20:00+27e9108096 0.4 1019925